Overview Statistics Trail Chart Weather Telemetry Raw packets
 

This is the latest recevied weather packets stored in our database for station/object OE6JUE. If no packets are shown the sender has not sent any weather packets the latest 10 day(s).

<< 111 112 113 114 >>
Time Temp. Humidity Pressure Rain* Wind** Luminosity Snow
1787844809 31.67° C 42% 1017.8 hPa 0 mm - - -
1787844509 32.22° C 41% 1018 hPa 0 mm - - -
1787844209 32.78° C 39% 1017.9 hPa 0 mm - - -
1787843910 32.22° C 41% 1017.9 hPa 0 mm - - -
1787843609 32.78° C 38% 1017.9 hPa 0 mm - - -
1787843310 32.78° C 39% 1017.8 hPa 0 mm - - -
1787843010 32.22° C 42% 1017.8 hPa 0 mm - - -
1787842710 31.67° C 42% 1017.9 hPa 0 mm - - -
1787842409 32.22° C 41% 1017.7 hPa 0 mm - - -
1787842109 31.67° C 41% 1017.7 hPa 0 mm - - -
1787841816 32.22° C 40% 1017.6 hPa 0 mm - - -
1787841510 32.22° C 40% 1017.6 hPa 0 mm - - -
1787841209 32.22° C 41% 1017.6 hPa 0 mm - - -
1787840909 32.78° C 37% 1017.6 hPa 0 mm - - -
1787840609 32.22° C 41% 1017.7 hPa 0 mm - - -
1787840309 32.78° C 35% 1017.7 hPa 0 mm - - -
1787840009 32.78° C 35% 1017.7 hPa 0 mm - - -
1787839709 32.78° C 34% 1017.8 hPa 0 mm - - -
1787839409 32.78° C 36% 1018 hPa 0 mm - - -
1787839109 32.22° C 38% 1017.9 hPa 0 mm - - -

* Rain latest hour (hover to see other rain measurements)
** Current wind speed in m/s (hover to see current wind gust speed)